User: anonymous   Login
Location: Eferding
(48.3167°N, 14.0167°E)
Time: 21:11:34
(UTC+00:00)
Language:

Cosmos 2034 Rocket - Orbit

View from above orbital plane
View from above orbital plane
View from above satellite
View from above satellite

Ground track
Ground track

The orbit data is extracted from the following two-line orbital elements,

1 20150U 89059B   20023.49068784 +.00000024 +00000-0 +89099-5 0  9998
2 20150 082.9408 109.1228 0029933 146.8327 223.9562 13.75648927530831
Epoch (UTC): 23 January 2020 11:46:35
Eccentricity: 0.0029933
inclination: 82.9408°
perigee height: 957 km
apogee height: 1001 km
right ascension of ascending node: 109.1228°
argument of perigee: 146.8327°
revolutions per day: 13.75648927
mean anomaly at epoch: 223.9562°
orbit number at epoch: 53083

The dashed part of the orbit path shows where the satellite is in the earth's shadow,  

DLR